User: anonymous
Location: NJAA Observatory
(40.6819°N, 74.8979°W)
Time: 23:56:00
(UTC-04:00)
Language:

Cosmos 2082 - Orbit

View from above orbital plane
View from above orbital plane
View from above satellite
View from above satellite

Ground track
Ground track

The orbit data is extracted from the following two-line orbital elements,

1 20624U 90046A   14114.13863032  .00000036  00000-0  43552-4 0  9037
2 20624 071.0408 101.4440 0016352 333.7607 077.5349 14.14074398234618
Epoch (UTC): 24 April 2014 03:19:37
Eccentricity: 0.0016352
inclination: 71.0408°
perigee height: 833 km
apogee height: 857 km
right ascension of ascending node: 101.4440°
argument of perigee: 333.7607°
revolutions per day: 14.14074398
mean anomaly at epoch: 77.5349°
orbit number at epoch: 23461

The dashed part of the orbit path shows where the satellite is in the earth's shadow,  

DLR